FENGYUN 4A

Last updated on May 18, 2019, 3:06 a.m. UTC

1 41882U 16077A   19136.74337306 -.00000342  00000-0  00000-0 0  9997
2 41882   0.1270 290.6477 0004339 222.5964  93.1034  1.00265650  9025
UTC
Height (km)
Latitude
Longitude
Inclination
Orbital Period
UTC large
Height (km)
Speed (km/s)
/
Latitude / Longitude
Inclination (degrees)
Orbital Period (minutes)
Azimuth
Elevation
Range (km)
Doppler Factor
iOS Compass Heading
iOS Angle

Next 30 passes for location: Hong Kong

Rise time Rise Azimuth (degrees) Set time Set Azimuth (degrees) Duration Max altitude (degrees)

No matching passes for this satellites